Havre, MT

1:20 PM MDT on July 23, 2017 (GMT -0600)
Havre City-County

Weather History for KHVR - February, 2014

Change the Weather History Date:

Monday, February 10, 2014

  Actual Average Record
Temperature  
Mean Temperature 0 °F 21 °F  
Max Temperature 18 °F 32 °F 61 °F (1987)
Min Temperature -18 °F 10 °F -40 °F (1939)
Degree Days  
Heating Degree Days 65 44  
Month to date heating degree days 693 446  
Since 1 July heating degree days 5471 5369  
Cooling Degree Days 0 0  
Month to date cooling degree days 0 0  
Year to date cooling degree days 0 0  
Moisture  
Dew Point -9 °F    
Average Humidity 75    
Maximum Humidity 87    
Minimum Humidity 63    
Precipitation  
Precipitation 0.00 in 0.01 in 0.17 in (1973)
Month to date precipitation 0.01 0.09  
Year to date precipitation 0.43 0.42  
Snow  
Snow 0.00 in 0.20 in 3.70 in (1978)
Month to date snowfall 0.1 1.9  
Since 1 July snowfall 33.3 24.0  
Snow Depth 3.00 in    
Sea Level Pressure  
Sea Level Pressure 30.21 in    
Wind  
Wind Speed 4 mph (SW)    
Max Wind Speed 14 mph    
Max Gust Speed 16 mph    
Visibility 10 miles    
Events      
T = Trace of Precipitation, MM = Missing Value Source: NWS Daily Summary

Daily Weather History Graph

Daily Weather History Graph

Search for Another Location

Airport or City:

Trip Planner

Search our weather history database for the weather conditions in past years. The results will help you decide how hot, cold, wet, or windy it might be!

Date:

Astronomy

Feb. 10, 2014 Rise Set
Actual Time 7:34 AM MST 5:32 PM MST
Civil Twilight 7:01 AM MST 6:05 PM MST
Nautical Twilight 6:24 AM MST 6:42 PM MST
Astronomical Twilight 5:48 AM MST 7:18 PM MST
Moon 1:56 PM MST (2/10) 4:38 AM MST (2/10)
Length of Visible Light 11h 03m
Length of Day
9h 57m
Waxing Gibbous, 85% of the Moon is Illuminated
Feb 10
Waxing Gibbous
Feb 14
Full
Feb 22
Last Quarter
Mar 1
New
Mar 8
First Quarter

Hourly Weather History & Observations

Time (MST) Temp. Windchill Dew Point Humidity Pressure Visibility Wind Dir Wind Speed Gust Speed Precip Events Conditions
12:53 AM -11.0 °F -24.6 °F -15.0 °F 83% 30.31 in 10.0 mi WSW 5.8 mph - N/A   Clear
1:53 AM -11.0 °F -26.2 °F -16.1 °F 78% 30.31 in 10.0 mi WSW 6.9 mph - N/A   Clear
2:53 AM -13.0 °F -27.0 °F -18.0 °F 78% 30.32 in 10.0 mi WSW 5.8 mph - N/A   Clear
3:53 AM -11.9 °F -21.5 °F -17.0 °F 78% 30.31 in 10.0 mi SW 3.5 mph - N/A   Clear
4:53 AM -14.1 °F -26.3 °F -18.0 °F 82% 30.33 in 10.0 mi WSW 4.6 mph - N/A   Clear
5:53 AM -15.0 °F -27.4 °F -20.0 °F 78% 30.33 in 10.0 mi West 4.6 mph - N/A   Clear
6:53 AM -15.0 °F -27.4 °F -20.0 °F 78% 30.33 in 10.0 mi West 4.6 mph - N/A   Clear
7:53 AM -17.0 °F -31.7 °F -23.1 °F 74% 30.35 in 10.0 mi WSW 5.8 mph - N/A   Clear
8:53 AM -11.0 °F - -17.0 °F 75% 30.35 in 10.0 mi Calm Calm - N/A   Clear
9:53 AM -7.1 °F - -11.9 °F 79% 30.35 in 10.0 mi Calm Calm - N/A   Clear
10:53 AM -2.9 °F -13.3 °F -8.0 °F 79% 30.33 in 10.0 mi SW 4.6 mph - N/A   Clear
11:53 AM 1.0 °F - -6.0 °F 72% 30.30 in 10.0 mi Calm Calm - N/A   Clear
12:53 PM 3.9 °F - -4.0 °F 70% 30.28 in 10.0 mi Calm Calm - N/A   Clear
1:53 PM 5.0 °F - -2.9 °F 70% 30.25 in 10.0 mi Calm Calm - N/A   Clear
2:53 PM 8.1 °F -2.0 °F -2.0 °F 64% 30.21 in 10.0 mi ENE 5.8 mph - N/A   Clear
3:53 PM 7.0 °F -4.5 °F -2.0 °F 67% 30.19 in 10.0 mi East 6.9 mph - N/A   Clear
4:53 PM 5.0 °F -6.9 °F -2.9 °F 70% 30.17 in 10.0 mi ENE 6.9 mph - N/A   Clear
5:53 PM 3.9 °F -8.2 °F -4.0 °F 70% 30.14 in 10.0 mi East 6.9 mph - N/A   Clear
6:53 PM 3.9 °F -9.4 °F -2.9 °F 73% 30.10 in 10.0 mi East 8.1 mph - N/A   Clear
7:53 PM 3.9 °F -5.3 °F -2.0 °F 76% 30.06 in 10.0 mi East 4.6 mph - N/A   Clear
8:53 PM 3.0 °F - -2.0 °F 80% 30.02 in 10.0 mi Calm Calm - N/A   Mostly Cloudy
9:53 PM 1.9 °F -5.6 °F -2.9 °F 80% 29.98 in 10.0 mi SSW 3.5 mph - N/A   Clear
10:53 PM 3.9 °F - -0.9 °F 80% 29.94 in 10.0 mi Calm Calm - N/A   Partly Cloudy
11:53 PM 10.9 °F -0.8 °F 6.1 °F 81% 29.88 in 10.0 mi WSW 8.1 mph - N/A   Mostly Cloudy